Regional Weather Roundup
Issued by NWS Boston, MA

Home | Current Version | Previous Version | Text Only | Print | Product List | Glossary On
Versions: 1 2 3 4 5 6 7 8 9 10 11 12 13 14 15 16 17 18 19 20 21 22 23 24 25 26 27 28 29 30 31 32 33 34 35 36 37 38 39 40 41 42 43 44 45 46 47 48 49 50
000
ASUS41 KBOX 190210
RWRBOX

REGIONAL WEATHER ROUNDUP
NATIONAL WEATHER SERVICE TAUNTON MA
1000 PM EDT THU SEP 18 2014

NOTE:  "FAIR" INDICATES FEW OR NO CLOUDS BELOW 12,000 FEET WITH NO
SIGNIFICANT WEATHER AND/OR OBSTRUCTIONS TO VISIBILITY.  THE FOLLOWING
OBSERVATION LOCATIONS DO NOT REPORT PRESENT WEATHER...PROVINCETOWN...
SMITHFIELD...BLOCK ISLAND...KEENE...AND OXFORD.

MAZALL-190300-
EASTERN MASSACHUSETTS

CITY           SKY/WX    TMP DP  RH WIND       PRES   REMARKS
BOSTON         MOCLDY    61  46  57 N14       30.10R
BEVERLY        MOCLDY    58  45  62 N8        30.09R
LAWRENCE       CLOUDY    56  42  59 N8        30.13R
BEDFORD        PTCLDY    56  46  69 N8        30.09R
BLUE HILL        N/A     60  48  64 N10G21    30.08R
NORWOOD        CLOUDY    63  49  60 N8        30.08R
MARSHFIELD     NOT AVBL
PLYMOUTH       CLOUDY    64  48  56 N13       30.08R
TAUNTON        PTCLDY    55  51  86 CALM      30.06R
NEW BEDFORD    CLOUDY    60  53  77 W5        30.04R
$$

MAZALL-190300-
CAPE COD AND THE ISLANDS

CITY           SKY/WX    TMP DP  RH WIND       PRES   REMARKS
FALMOUTH       CLOUDY    61  54  77 CALM      30.06R
HYANNIS        CLOUDY    60  53  77 CALM      30.04R
CHATHAM        CLOUDY    59  52  77 CALM      30.06R
PROVINCETOWN   CLOUDY    64  54  68 NW9       30.07R
NANTUCKET      CLEAR     56  48  74 CALM      30.05R
MARTHAS VNYRD  MOCLDY    55  50  83 CALM      30.05R
$$

MAZALL-190300-
CENTRAL AND WESTERN MASSACHUSETTS

CITY           SKY/WX    TMP DP  RH WIND       PRES   REMARKS
WORCESTER      PTCLDY    55  48  77 N7        30.11R
FITCHBURG      PTCLDY    56  46  69 N6        30.13R
ORANGE         PTCLDY    54  46  74 N6        30.13R
SPRINGFIELD    PTCLDY    55  49  78 NE7       30.10R
WESTFIELD      CLEAR     56  50  80 N6        30.10R
NORTH ADAMS    CLEAR     49  46  90 W3        30.14R
PITTSFIELD     MOCLDY    52  48  86 N5        30.12R
$$

RIZALL-190300-
RHODE ISLAND

CITY           SKY/WX    TMP DP  RH WIND       PRES   REMARKS
PROVIDENCE     MOCLDY    65  48  54 N12G21    30.07R
NEWPORT        PTCLDY    62  52  69 N5        30.05R
BLOCK ISLAND   PTCLDY    64  55  72 NW5       30.05R
SMITHFIELD     CLEAR     61  45  55 N10       30.08R
WESTERLY       CLEAR     56  51  84 CALM      30.07R
$$

CTZALL-190300-
CONNECTICUT

CITY           SKY/WX    TMP DP  RH WIND       PRES   REMARKS
BRADLEY INTL   PTCLDY    59  50  72 N9        30.09R
HARTFORD       CLEAR     62  50  64 VRB5      30.09R
BRIDGEPORT     CLEAR     64  50  60 N9        30.07R
DANBURY        CLEAR     52  49  89 SW5       30.10R
GROTON         CLEAR     57  53  86 N6        30.06R
NEW HAVEN      MOCLDY    60  48  64 N7        30.07R
CHESTER        FAIR      59  48  67 CALM      30.09R
MERIDEN        PTCLDY    60  48  64 N6        30.08R
WILLIMANTIC    PTCLDY    54  51  90 NE3       30.09R
OXFORD         MOCLDY    59  46  63 N10       30.10R
$$

MEZ002-015-021-024-NHZ003-005-008-011-012-014-VTZ005-008-190300-
NORTHERN NEW ENGLAND

CITY           SKY/WX    TMP DP  RH WIND       PRES   REMARKS
PORTLAND ME    CLEAR     49  36  61 N8        30.13R
BANGOR ME      PTCLDY    45  31  58 NW7       30.13R
CONCORD NH     CLEAR     49  39  68 NW7       30.14R
MANCHESTER NH  PTCLDY    54  40  59 N10G18    30.12R
NASHUA NH      CLEAR     55  45  69 N8        30.13R
PORTSMOUTH NH  PTCLDY    55  40  58 NW10      30.11R
JAFFREY NH     PTCLDY    51  44  77 CALM      30.13R
KEENE NH       CLEAR     52  37  58 N10       30.15R
BURLINGTON VT  CLOUDY    46  38  73 N7        30.20R
MT. WASHINGTON FOG       23  23 100 NW41        N/A  VSB 1/16WCI   3
$$

NYZ052-076-190300-
EASTERN NEW YORK

CITY           SKY/WX    TMP DP  RH WIND       PRES   REMARKS
ALBANY         MOCLDY    51  42  71 N9        30.16R
NEW YORK CITY  PTCLDY    70  48  45 NE6       30.06R
$$

ANZALL-190300-
MARINE OBSERVATIONS

STATION/POSITION TIME  TEMP    WIND        PRES    VSBY  WAVE
                       AIR SEA DIR/SP/G                  HT/PER
                 (UTC) (F)     (DEG/KT/KT) (MB)    (MI)  (FT/S)
BOSTON BUOY      0150   61 62   10/ 17/ 21 1018.5R         2/11
BUZZARDS BAY     0100          100/  8/  9 1017.5R
NANTUCKET SOUND  0150   65 68   CALM  /  2 1017.2R         1/ 5
MASS BAY-STELLWA 0104   63 62  350/ 17/ 21   N/A    1 7/8  4/11
ISLE OF SHOALS   0200   57     360/ 18/ 20 1019.0R
S OF BLOCK IS    0108      68                N/A           3/11
$$

......................KEY.........................
  SKY/WX - SKY CONDITION/PRESENT WEATHER
  TMP    - TEMPERATURE IN FAHRENHEIT
  DWPT   - DEWPOINT IN FAHRENHEIT
  RH     - RELATIVE HUMIDITY IN PERCENT
  WIND   - DIRECTION AND SPEED IN MPH
  PRES   - MEAN SEA LEVEL PRESSURE IN INCHES OF HG
  WCI    - WIND CHILL INDEX
  VSB    - VISIBILITY IN MILES
  HX     - HEAT INDEX
  TC     - TEMPERATURE IN CELSIUS
  VRB    - VARIABLE WIND DIRECTION
  N/A    - NOT AVAILABLE



USA.gov is the U.S. government's official web portal to all federal, state and local government web resources and services.